This demonstration page uses our WeatherBlox Daily Observations layout. Learn more.

Left ArrowRight Arrow

39.92423, -83.80882

Hourly Observations for May 19, 2020

Temp ( °F °C ) Dew Point ( °F °C ) Humidity (%) Winds ( mph kmh ) Pressure ( in mb ) Visibility ( mi km ) Precip ( " mm )
12:44 am 00:44 Cloudy with Rain 61 16 61 16 100 100 E 10 17 29.78 1008 9 14.48406 0 0
12:49 am 00:49 Cloudy with Rain 61 16 61 16 100 100 E 12 19 29.78 1008 8 12.87472 0 0
12:56 am 00:56 Cloudy with Rain 61 16.1 61 16.1 100 100 E 10 17 29.78 1009 8 12.87472 0 0
1:56 am 01:56 Cloudy 61 16.1 61 16.1 100 100 E 13 20 29.78 1009 10 16.0934 0 0
2:53 am 02:53 Mostly Cloudy with Light Rain 61 16 61 16 100 100 E 14 22 29.78 1008 10 16.0934 0 0
2:56 am 02:56 Cloudy with Light Rain 61 16.1 61 16.1 100 100 E 14 22 29.78 1009 10 16.0934 0 0
3:36 am 03:36 Mostly Cloudy 61 16 61 16 100 100 E 12 19 29.78 1008 10 16.0934 0 0
3:56 am 03:56 Mostly Cloudy with Light Rain 60 15.6 60 15.6 100 100 ENE 9 15 29.77 1008 10 16.0934 0 0
4:16 am 04:16 Cloudy with Light Rain 61 16 61 16 100 100 ENE 12 19 29.76 1008 10 16.0934 0 0
4:56 am 04:56 Cloudy with Light Rain 60 15.6 60 15.6 100 100 E 15 24 29.77 1008 10 16.0934 0 0
5:04 am 05:04 Cloudy with Light Rain 61 16 61 16 100 100 E 14 22 29.77 1008 10 16.0934 0 0
5:16 am 05:16 Cloudy with Rain 61 16 61 16 100 100 E 14 22 29.77 1008 10 16.0934 0 0
5:23 am 05:23 Cloudy with Light Rain 61 16 61 16 100 100 E 15 24 29.77 1008 10 16.0934 0 0
5:56 am 05:56 Cloudy with Light Rain 60 15.6 60 15.6 100 100 ENE 16 26 29.77 1008 9 14.48406 0 0
6:56 am 06:56 Cloudy with Rain 61 16.1 61 16.1 100 100 E 17 28 29.79 1009 3 4.82802 0 0
7:21 am 07:21 Cloudy 61 16 61 16 100 100 E 17 28 29.78 1008 10 16.0934 0 0
7:56 am 07:56 Cloudy with Light Rain 61 16.1 61 16.1 100 100 E 18 30 29.8 1009 10 16.0934 0 0
8:56 am 08:56 Cloudy with Light Rain 61 16.1 61 16.1 100 100 E 22 35 29.81 1010 10 16.0934 0 0
9:56 am 09:56 Cloudy with Light Rain 61 16.1 61 16.1 100 100 E 20 31 29.83 1010 10 16.0934 0 0
10:56 am 10:56 Cloudy with Light Rain 61 16.1 61 16.1 100 100 E 23 37 29.85 1011 10 16.0934 0 0
11:56 am 11:56 Cloudy with Light Rain 61 16.1 61 16.1 100 100 ESE 24 39 29.87 1012 10 16.0934 0 0
12:56 pm 12:56 Cloudy with Light Rain 60 15.6 60 15.6 100 100 E 10 17 29.89 1012 9 14.48406 0 0
1:56 pm 13:56 Cloudy with Light Rain 59 15 59 15 100 100 E 20 31 29.9 1012 10 16.0934 0 0
2:13 pm 14:13 Cloudy with Light Rain 59 15 59 15 100 100 E 20 31 29.89 1012 10 16.0934 0 0
2:29 pm 14:29 Cloudy with Light Rain 59 15 59 15 100 100 E 22 35 29.89 1012 9 14.48406 0 0
2:56 pm 14:56 Cloudy with Light Rain 59 15 59 15 100 100 E 23 37 29.91 1013 9 14.48406 0 0
3:42 pm 15:42 Cloudy 57 14 55 13 94 94 E 24 39 29.92 1013 10 16.0934 0 0
3:54 pm 15:54 Cloudy 57 14 55 13 94 94 E 22 35 29.93 1013 10 16.0934 0 0
3:56 pm 15:56 Cloudy with Light Rain 57 13.9 56 13.3 96 96 E 23 37 29.93 1014 10 16.0934 0 0
4:04 pm 16:04 Cloudy with Light Rain 57 14 55 13 94 94 E 26 43 29.93 1013 10 16.0934 0 0
4:30 pm 16:30 Cloudy with Light Rain 57 14 57 14 100 100 E 21 33 29.93 1013 10 16.0934 0 0
4:42 pm 16:42 Cloudy with Light Rain 55 13 55 13 100 100 E 18 30 29.93 1014 10 16.0934 0 0
4:56 pm 16:56 Cloudy with Light Rain 56 13.3 56 13.3 100 100 E 18 30 29.93 1014 10 16.0934 0 0
5:56 pm 17:56 Cloudy with Light Rain 55 12.8 55 12.8 100 100 E 21 33 29.94 1014 10 16.0934 0 0
6:56 pm 18:56 Cloudy with Light Rain 55 12.8 55 12.8 100 100 E 23 37 29.95 1014 10 16.0934 0 0
7:56 pm 19:56 Cloudy with Light Rain 55 12.8 55 12.8 100 100 E 22 35 29.97 1015 10 16.0934 0 0
8:56 pm 20:56 Cloudy with Light Rain 54 12.2 54 12.2 100 100 E 23 37 29.99 1016 10 16.0934 0 0
9:56 pm 21:56 Cloudy 54 12.2 54 12.2 100 100 E 21 33 30.01 1016 10 16.0934 0 0
10:56 pm 22:56 Cloudy 53 11.7 53 11.7 100 100 E 21 33 30.04 1017 10 16.0934 0 0
11:56 pm 23:56 Cloudy 52 11.1 52 11.1 100 100 E 22 35 30.04 1017 10 16.0934 0 0

Powered by AerisWeather